Time,TemperatureF,DewpointF,PressureIn,WindDirection,WindDirectionDegrees,WindSpeedMPH,WindSpeedGustMPH,Humidity,HourlyPrecipIn,Conditions,Clouds,dailyrainin,SoftwareType,DateUTC
2013-04-12 00:03:00,39.0,30.0,30.16,North,-999,-999.0,-999.0,71,-99.99,,,-99.99,,2013-04-12 04:03:00,
2013-04-12 00:13:00,39.0,31.0,30.17,North,-999,-999.0,-999.0,72,-99.99,,,-99.99,,2013-04-12 04:13:00,
2013-04-12 00:23:00,39.0,31.0,30.17,North,-999,-999.0,-999.0,72,-99.99,,,-99.99,,2013-04-12 04:23:00,
2013-04-12 00:33:00,39.0,30.0,30.18,North,-999,-999.0,-999.0,71,-99.99,,,-99.99,,2013-04-12 04:33:00,
2013-04-12 00:43:00,39.0,30.0,30.18,North,-999,-999.0,-999.0,68,-99.99,,,-99.99,,2013-04-12 04:43:00,
2013-04-12 00:52:00,39.0,30.0,30.18,North,-999,-999.0,-999.0,68,-99.99,,,-99.99,,2013-04-12 04:52:00,
2013-04-12 01:03:00,39.0,30.0,30.18,North,-999,-999.0,-999.0,69,-99.99,,,-99.99,,2013-04-12 05:03:00,
2013-04-12 01:12:00,39.0,30.0,30.18,North,-999,-999.0,-999.0,69,-99.99,,,-99.99,,2013-04-12 05:12:00,
2013-04-12 01:23:00,40.0,30.0,30.18,North,-999,-999.0,-999.0,68,-99.99,,,-99.99,,2013-04-12 05:23:00,
2013-04-12 01:32:00,40.0,30.0,30.17,North,-999,-999.0,-999.0,67,-99.99,,,-99.99,,2013-04-12 05:32:00,
2013-04-12 01:42:00,40.0,30.0,30.17,North,-999,-999.0,-999.0,67,-99.99,,,-99.99,,2013-04-12 05:42:00,
2013-04-12 01:52:00,39.0,28.0,30.18,North,-999,-999.0,-999.0,64,-99.99,,,-99.99,,2013-04-12 05:52:00,
2013-04-12 02:02:00,40.0,29.0,30.18,North,-999,-999.0,-999.0,64,-99.99,,,-99.99,,2013-04-12 06:02:00,
2013-04-12 02:12:00,39.0,29.0,30.17,North,-999,-999.0,-999.0,66,-99.99,,,-99.99,,2013-04-12 06:12:00,
2013-04-12 02:22:00,39.0,29.0,30.17,North,-999,-999.0,-999.0,66,-99.99,,,-99.99,,2013-04-12 06:22:00,
2013-04-12 02:32:00,39.0,29.0,30.16,North,-999,-999.0,-999.0,67,-99.99,,,-99.99,,2013-04-12 06:32:00,
2013-04-12 02:42:00,39.0,29.0,30.16,North,-999,-999.0,-999.0,67,-99.99,,,-99.99,,2013-04-12 06:42:00,
2013-04-12 02:52:00,39.0,28.0,30.17,North,-999,-999.0,-999.0,64,-99.99,,,-99.99,,2013-04-12 06:52:00,
2013-04-12 03:02:00,39.0,29.0,30.17,North,-999,-999.0,-999.0,65,-99.99,,,-99.99,,2013-04-12 07:02:00,
2013-04-12 03:12:00,39.0,28.0,30.17,North,-999,-999.0,-999.0,63,-99.99,,,-99.99,,2013-04-12 07:12:00,
2013-04-12 03:22:00,39.0,28.0,30.17,North,-999,-999.0,-999.0,63,-99.99,,,-99.99,,2013-04-12 07:22:00,
2013-04-12 03:32:00,39.0,28.0,30.17,North,-999,-999.0,-999.0,63,-99.99,,,-99.99,,2013-04-12 07:32:00,
2013-04-12 03:42:00,39.0,29.0,30.17,North,-999,-999.0,-999.0,65,-99.99,,,-99.99,,2013-04-12 07:42:00,
2013-04-12 03:52:00,39.0,29.0,30.17,North,-999,-999.0,-999.0,65,-99.99,,,-99.99,,2013-04-12 07:52:00,
2013-04-12 04:03:00,38.0,29.0,30.18,North,-999,-999.0,-999.0,68,-99.99,,,-99.99,,2013-04-12 08:03:00,
2013-04-12 04:12:00,38.0,30.0,30.18,North,-999,-999.0,-999.0,73,-99.99,,,-99.99,,2013-04-12 08:12:00,
2013-04-12 04:22:00,38.0,30.0,30.18,North,-999,-999.0,-999.0,73,-99.99,,,-99.99,,2013-04-12 08:22:00,
2013-04-12 04:32:00,38.0,31.0,30.17,North,-999,-999.0,-999.0,75,-99.99,,,-99.99,,2013-04-12 08:32:00,
2013-04-12 04:42:00,37.0,31.0,30.19,North,-999,-999.0,-999.0,77,-99.99,,,-99.99,,2013-04-12 08:42:00,
2013-04-12 04:52:00,37.0,31.0,30.19,North,-999,-999.0,-999.0,77,-99.99,,,-99.99,,2013-04-12 08:52:00,
2013-04-12 05:02:00,36.0,30.0,30.18,North,-999,-999.0,-999.0,78,-99.99,,,-99.99,,2013-04-12 09:02:00,
2013-04-12 05:12:00,36.0,30.0,30.17,North,-999,-999.0,-999.0,79,-99.99,,,-99.99,,2013-04-12 09:12:00,
2013-04-12 05:22:00,36.0,30.0,30.17,North,-999,-999.0,-999.0,79,-99.99,,,-99.99,,2013-04-12 09:22:00,
2013-04-12 05:33:00,35.0,30.0,30.18,North,-999,-999.0,-999.0,81,-99.99,,,-99.99,,2013-04-12 09:33:00,
2013-04-12 05:43:00,35.0,30.0,30.17,North,-999,-999.0,-999.0,81,-99.99,,,-99.99,,2013-04-12 09:43:00,
2013-04-12 05:52:00,35.0,30.0,30.17,North,-999,-999.0,-999.0,81,-99.99,,,-99.99,,2013-04-12 09:52:00,
2013-04-12 06:03:00,35.0,29.0,30.18,North,-999,-999.0,-999.0,81,-99.99,,,-99.99,,2013-04-12 10:03:00,
2013-04-12 06:13:00,34.0,29.0,30.19,North,-999,-999.0,-999.0,82,-99.99,,,-99.99,,2013-04-12 10:13:00,
2013-04-12 06:23:00,34.0,29.0,30.19,North,-999,-999.0,-999.0,82,-99.99,,,-99.99,,2013-04-12 10:23:00,
2013-04-12 06:34:00,34.0,29.0,30.18,North,-999,-999.0,-999.0,82,-99.99,,,-99.99,,2013-04-12 10:34:00,
2013-04-12 06:42:00,34.0,29.0,30.19,North,-999,-999.0,-999.0,81,-99.99,,,-99.99,,2013-04-12 10:42:00,
2013-04-12 06:52:00,34.0,29.0,30.19,North,-999,-999.0,-999.0,81,-99.99,,,-99.99,,2013-04-12 10:52:00,
2013-04-12 07:03:00,35.0,29.0,30.19,North,-999,-999.0,-999.0,78,-99.99,,,-99.99,,2013-04-12 11:03:00,
2013-04-12 07:13:00,35.0,28.0,30.19,North,-999,-999.0,-999.0,76,-99.99,,,-99.99,,2013-04-12 11:13:00,
2013-04-12 07:22:00,35.0,28.0,30.19,North,-999,-999.0,-999.0,76,-99.99,,,-99.99,,2013-04-12 11:22:00,
2013-04-12 07:32:00,34.0,28.0,30.19,North,-999,-999.0,-999.0,77,-99.99,,,-99.99,,2013-04-12 11:32:00,
2013-04-12 07:42:00,34.0,28.0,30.19,North,-999,-999.0,-999.0,77,-99.99,,,-99.99,,2013-04-12 11:42:00,
2013-04-12 07:52:00,35.0,28.0,30.18,North,-999,-999.0,-999.0,77,-99.99,,,-99.99,,2013-04-12 11:52:00,
2013-04-12 08:03:00,35.0,28.0,30.18,North,-999,-999.0,-999.0,73,-99.99,,,-99.99,,2013-04-12 12:03:00,
2013-04-12 08:13:00,35.0,28.0,30.18,North,-999,-999.0,-999.0,73,-99.99,,,-99.99,,2013-04-12 12:13:00,
2013-04-12 08:22:00,36.0,27.0,30.17,North,-999,-999.0,-999.0,70,-99.99,,,-99.99,,2013-04-12 12:22:00,
2013-04-12 08:33:00,36.0,28.0,30.17,North,-999,-999.0,-999.0,70,-99.99,,,-99.99,,2013-04-12 12:33:00,
2013-04-12 08:42:00,36.0,28.0,30.17,North,-999,-999.0,-999.0,70,-99.99,,,-99.99,,2013-04-12 12:42:00,
2013-04-12 08:53:00,36.0,27.0,30.16,North,-999,-999.0,-999.0,69,-99.99,,,-99.99,,2013-04-12 12:53:00,
2013-04-12 09:03:00,36.0,28.0,30.17,North,-999,-999.0,-999.0,69,-99.99,,,-99.99,,2013-04-12 13:03:00,
2013-04-12 09:12:00,36.0,28.0,30.17,North,-999,-999.0,-999.0,69,-99.99,,,-99.99,,2013-04-12 13:12:00,
2013-04-12 09:22:00,37.0,28.0,30.14,North,-999,-999.0,-999.0,68,-99.99,,,-99.99,,2013-04-12 13:22:00,
2013-04-12 09:32:00,37.0,28.0,30.15,North,-999,-999.0,-999.0,68,-99.99,,,-99.99,,2013-04-12 13:32:00,
2013-04-12 09:42:00,37.0,27.0,30.15,North,-999,-999.0,-999.0,65,-99.99,,,-99.99,,2013-04-12 13:42:00,
2013-04-12 09:52:00,37.0,27.0,30.15,North,-999,-999.0,-999.0,65,-99.99,,,-99.99,,2013-04-12 13:52:00,
2013-04-12 10:03:00,37.0,27.0,30.13,North,-999,-999.0,-999.0,66,-99.99,,,-99.99,,2013-04-12 14:03:00,
2013-04-12 10:13:00,37.0,27.0,30.12,North,-999,-999.0,-999.0,65,-99.99,,,-99.99,,2013-04-12 14:13:00,
2013-04-12 10:23:00,37.0,27.0,30.12,North,-999,-999.0,-999.0,65,-99.99,,,-99.99,,2013-04-12 14:23:00,
2013-04-12 10:33:00,37.0,27.0,30.12,North,-999,-999.0,-999.0,66,-99.99,,,-99.99,,2013-04-12 14:33:00,
2013-04-12 10:42:00,37.0,27.0,30.11,North,-999,-999.0,-999.0,66,-99.99,,,-99.99,,2013-04-12 14:42:00,
2013-04-12 10:53:00,37.0,27.0,30.11,North,-999,-999.0,-999.0,66,-99.99,,,-99.99,,2013-04-12 14:53:00,
2013-04-12 11:03:00,36.0,29.0,30.11,North,-999,-999.0,-999.0,74,-99.99,,,-99.99,,2013-04-12 15:03:00,
2013-04-12 11:12:00,35.0,29.0,30.10,North,-999,-999.0,-999.0,79,-99.99,,,-99.99,,2013-04-12 15:12:00,
2013-04-12 11:22:00,35.0,29.0,30.10,North,-999,-999.0,-999.0,79,-99.99,,,-99.99,,2013-04-12 15:22:00,
2013-04-12 11:33:00,35.0,30.0,30.09,North,-999,-999.0,-999.0,80,-99.99,,,-99.99,,2013-04-12 15:33:00,
2013-04-12 11:43:00,35.0,30.0,30.09,North,-999,-999.0,-999.0,82,-99.99,,,-99.99,,2013-04-12 15:43:00,
2013-04-12 11:53:00,35.0,30.0,30.09,North,-999,-999.0,-999.0,82,-99.99,,,-99.99,,2013-04-12 15:53:00,
2013-04-12 12:04:00,35.0,30.0,30.10,North,-999,-999.0,-999.0,83,-99.99,,,-99.99,,2013-04-12 16:04:00,
2013-04-12 12:13:00,35.0,31.0,30.07,North,-999,-999.0,-999.0,84,-99.99,,,-99.99,,2013-04-12 16:13:00,
2013-04-12 12:23:00,35.0,31.0,30.07,North,-999,-999.0,-999.0,84,-99.99,,,-99.99,,2013-04-12 16:23:00,
2013-04-12 12:33:00,35.0,31.0,30.08,North,-999,-999.0,-999.0,85,-99.99,,,-99.99,,2013-04-12 16:33:00,
2013-04-12 12:42:00,35.0,31.0,30.06,North,-999,-999.0,-999.0,85,-99.99,,,-99.99,,2013-04-12 16:42:00,
2013-04-12 12:52:00,35.0,31.0,30.06,North,-999,-999.0,-999.0,85,-99.99,,,-99.99,,2013-04-12 16:52:00,
2013-04-12 13:04:00,35.0,31.0,30.05,North,-999,-999.0,-999.0,85,-99.99,,,-99.99,,2013-04-12 17:04:00,
2013-04-12 13:12:00,35.0,31.0,30.05,North,-999,-999.0,-999.0,85,-99.99,,,-99.99,,2013-04-12 17:12:00,
2013-04-12 13:23:00,35.0,31.0,30.06,North,-999,-999.0,-999.0,85,-99.99,,,-99.99,,2013-04-12 17:23:00,
2013-04-12 13:33:00,35.0,31.0,30.06,North,-999,-999.0,-999.0,85,-99.99,,,-99.99,,2013-04-12 17:33:00,
2013-04-12 13:45:00,35.0,32.0,30.05,North,-999,-999.0,-999.0,86,-99.99,,,-99.99,,2013-04-12 17:45:00,
2013-04-12 13:59:00,35.0,32.0,30.05,North,-999,-999.0,-999.0,86,-99.99,,,-99.99,,2013-04-12 17:59:00,
2013-04-12 14:10:00,35.0,31.0,30.04,North,-999,-999.0,-999.0,86,-99.99,,,-99.99,,2013-04-12 18:10:00,
2013-04-12 15:26:00,35.0,32.0,30.01,North,-999,-999.0,-999.0,87,-99.99,,,-99.99,,2013-04-12 19:26:00,
2013-04-12 15:27:00,35.0,31.0,29.99,North,-999,-999.0,-999.0,86,-99.99,,,-99.99,,2013-04-12 19:27:00,
2013-04-12 15:33:00,35.0,32.0,29.99,North,-999,-999.0,-999.0,87,-99.99,,,-99.99,,2013-04-12 19:33:00,
2013-04-12 15:43:00,35.0,32.0,29.98,North,-999,-999.0,-999.0,86,-99.99,,,-99.99,,2013-04-12 19:43:00,
2013-04-12 15:52:00,35.0,32.0,29.98,North,-999,-999.0,-999.0,86,-99.99,,,-99.99,,2013-04-12 19:52:00,
2013-04-12 16:02:00,35.0,32.0,29.97,North,-999,-999.0,-999.0,86,-99.99,,,-99.99,,2013-04-12 20:02:00,
2013-04-12 16:12:00,35.0,32.0,29.96,North,-999,-999.0,-999.0,86,-99.99,,,-99.99,,2013-04-12 20:12:00,
2013-04-12 16:22:00,35.0,32.0,29.96,North,-999,-999.0,-999.0,86,-99.99,,,-99.99,,2013-04-12 20:22:00,
2013-04-12 16:32:00,35.0,31.0,29.96,North,-999,-999.0,-999.0,86,-99.99,,,-99.99,,2013-04-12 20:32:00,
2013-04-12 16:42:00,35.0,32.0,29.95,North,-999,-999.0,-999.0,86,-99.99,,,-99.99,,2013-04-12 20:42:00,
2013-04-12 16:52:00,35.0,32.0,29.95,North,-999,-999.0,-999.0,86,-99.99,,,-99.99,,2013-04-12 20:52:00,
2013-04-12 17:02:00,35.0,32.0,29.95,North,-999,-999.0,-999.0,86,-99.99,,,-99.99,,2013-04-12 21:02:00,
2013-04-12 17:12:00,35.0,32.0,29.94,North,-999,-999.0,-999.0,86,-99.99,,,-99.99,,2013-04-12 21:12:00,
2013-04-12 17:22:00,35.0,32.0,29.94,North,-999,-999.0,-999.0,86,-99.99,,,-99.99,,2013-04-12 21:22:00,
2013-04-12 17:33:00,35.0,32.0,29.94,North,-999,-999.0,-999.0,87,-99.99,,,-99.99,,2013-04-12 21:33:00,
2013-04-12 17:43:00,35.0,32.0,29.93,North,-999,-999.0,-999.0,87,-99.99,,,-99.99,,2013-04-12 21:43:00,
2013-04-12 17:52:00,35.0,32.0,29.93,North,-999,-999.0,-999.0,87,-99.99,,,-99.99,,2013-04-12 21:52:00,
2013-04-12 18:02:00,35.0,32.0,29.93,North,-999,-999.0,-999.0,87,-99.99,,,-99.99,,2013-04-12 22:02:00,
2013-04-12 18:13:00,35.0,32.0,29.93,North,-999,-999.0,-999.0,87,-99.99,,,-99.99,,2013-04-12 22:13:00,
2013-04-12 18:22:00,35.0,32.0,29.92,North,-999,-999.0,-999.0,88,-99.99,,,-99.99,,2013-04-12 22:22:00,
2013-04-12 18:33:00,35.0,32.0,29.91,North,-999,-999.0,-999.0,88,-99.99,,,-99.99,,2013-04-12 22:33:00,
2013-04-12 18:42:00,35.0,32.0,29.91,North,-999,-999.0,-999.0,88,-99.99,,,-99.99,,2013-04-12 22:42:00,
2013-04-12 18:52:00,35.0,32.0,29.91,North,-999,-999.0,-999.0,88,-99.99,,,-99.99,,2013-04-12 22:52:00,
2013-04-12 19:04:00,35.0,32.0,29.91,North,-999,-999.0,-999.0,88,-99.99,,,-99.99,,2013-04-12 23:04:00,
2013-04-12 19:12:00,35.0,32.0,29.90,North,-999,-999.0,-999.0,88,-99.99,,,-99.99,,2013-04-12 23:12:00,
2013-04-12 19:22:00,35.0,32.0,29.90,North,-999,-999.0,-999.0,88,-99.99,,,-99.99,,2013-04-12 23:22:00,
2013-04-12 19:32:00,35.0,32.0,29.89,North,-999,-999.0,-999.0,88,-99.99,,,-99.99,,2013-04-12 23:32:00,
2013-04-12 19:42:00,35.0,32.0,29.88,North,-999,-999.0,-999.0,88,-99.99,,,-99.99,,2013-04-12 23:42:00,
2013-04-12 19:52:00,35.0,32.0,29.88,North,-999,-999.0,-999.0,88,-99.99,,,-99.99,,2013-04-12 23:52:00,
2013-04-12 20:02:00,35.0,32.0,29.89,North,-999,-999.0,-999.0,88,-99.99,,,-99.99,,2013-04-13 00:02:00,
2013-04-12 20:12:00,35.0,32.0,29.89,North,-999,-999.0,-999.0,88,-99.99,,,-99.99,,2013-04-13 00:12:00,
2013-04-12 20:22:00,35.0,32.0,29.89,North,-999,-999.0,-999.0,88,-99.99,,,-99.99,,2013-04-13 00:22:00,
2013-04-12 20:32:00,35.0,32.0,29.88,North,-999,-999.0,-999.0,89,-99.99,,,-99.99,,2013-04-13 00:32:00,
2013-04-12 20:42:00,36.0,33.0,29.88,North,-999,-999.0,-999.0,89,-99.99,,,-99.99,,2013-04-13 00:42:00,
2013-04-12 20:52:00,36.0,33.0,29.88,North,-999,-999.0,-999.0,89,-99.99,,,-99.99,,2013-04-13 00:52:00,
2013-04-12 21:02:00,36.0,33.0,29.88,North,-999,-999.0,-999.0,89,-99.99,,,-99.99,,2013-04-13 01:02:00,
2013-04-12 21:13:00,35.0,32.0,29.88,North,-999,-999.0,-999.0,89,-99.99,,,-99.99,,2013-04-13 01:13:00,
2013-04-12 21:22:00,35.0,32.0,29.88,North,-999,-999.0,-999.0,89,-99.99,,,-99.99,,2013-04-13 01:22:00,
2013-04-12 21:33:00,35.0,33.0,29.88,North,-999,-999.0,-999.0,89,-99.99,,,-99.99,,2013-04-13 01:33:00,
2013-04-12 21:42:00,35.0,33.0,29.88,North,-999,-999.0,-999.0,89,-99.99,,,-99.99,,2013-04-13 01:42:00,
2013-04-12 21:52:00,35.0,32.0,29.86,North,-999,-999.0,-999.0,89,-99.99,,,-99.99,,2013-04-13 01:52:00,
2013-04-12 22:02:00,35.0,32.0,29.86,North,-999,-999.0,-999.0,89,-99.99,,,-99.99,,2013-04-13 02:02:00,
2013-04-12 22:12:00,35.0,32.0,29.86,North,-999,-999.0,-999.0,89,-99.99,,,-99.99,,2013-04-13 02:12:00,
2013-04-12 22:22:00,35.0,32.0,29.87,North,-999,-999.0,-999.0,89,-99.99,,,-99.99,,2013-04-13 02:22:00,
2013-04-12 22:33:00,35.0,32.0,29.86,North,-999,-999.0,-999.0,89,-99.99,,,-99.99,,2013-04-13 02:33:00,
2013-04-12 22:42:00,35.0,32.0,29.85,North,-999,-999.0,-999.0,89,-99.99,,,-99.99,,2013-04-13 02:42:00,
2013-04-12 22:52:00,35.0,32.0,29.85,North,-999,-999.0,-999.0,89,-99.99,,,-99.99,,2013-04-13 02:52:00,
2013-04-12 23:03:00,35.0,32.0,29.84,North,-999,-999.0,-999.0,89,-99.99,,,-99.99,,2013-04-13 03:03:00,
2013-04-12 23:12:00,35.0,32.0,29.84,North,-999,-999.0,-999.0,89,-99.99,,,-99.99,,2013-04-13 03:12:00,
2013-04-12 23:23:00,35.0,32.0,29.84,North,-999,-999.0,-999.0,89,-99.99,,,-99.99,,2013-04-13 03:23:00,
2013-04-12 23:33:00,35.0,33.0,29.84,North,-999,-999.0,-999.0,89,-99.99,,,-99.99,,2013-04-13 03:33:00,
2013-04-12 23:42:00,35.0,33.0,29.84,North,-999,-999.0,-999.0,89,-99.99,,,-99.99,,2013-04-13 03:42:00,
2013-04-12 23:53:00,36.0,33.0,29.84,North,-999,-999.0,-999.0,89,-99.99,,,-99.99,,2013-04-13 03:53:00,